Weather History for Bigfork, MN

Change the Weather History Date:

Thursday, March 7, 2013

  Actual Average (KGPZ) Record (KGPZ)
Temperature  
Mean Temperature 9 °F -  
Max Temperature 32 °F 34 °F 64 °F (1987)
Min Temperature -14 °F 6 °F -34 °F (1955)
Degree Days  
Heating Degree Days 56    
Moisture  
Dew Point 3 °F    
Average Humidity 68    
Maximum Humidity 92    
Minimum Humidity 48    
Precipitation  
Precipitation 0.00 in - - ()
Sea Level Pressure  
Sea Level Pressure 30.30 in    
Wind  
Wind Speed 2 mph (SE)    
Max Wind Speed 12 mph    
Max Gust Speed -    
Visibility 10 miles    
Events Snow    
Averages and records for this station are not official NWS values.
T = Trace of Precipitation, MM = Missing Value Source: NWS Daily Summary

Daily Weather History Graph

Daily Weather History Graph

Search for Another Location

Airport:

Trip Planner

Search our weather history database for the weather conditions in past years. The results will help you decide how hot, cold, wet, or windy it might be!

Date:

Astronomy

Mar. 07, 2013 Rise Set
Actual Time 6:43 AM CST 6:08 PM CST
Civil Twilight 6:12 AM CST 6:39 PM CST
Nautical Twilight 5:36 AM CST 7:15 PM CST
Astronomical Twilight 5:00 AM CST 7:51 PM CST
Moon 3:59 AM CST (3/7) 1:42 PM CST (3/7)
Length of Visible Light 12h 27m
Length of Day
11h 25m
Waning Crescent, 20% of the Moon is Illuminated
Mar 7
Waning Crescent
Mar 11
New
Mar 19
First Quarter
Mar 27
Full
Apr 2
Last Quarter

Hourly Weather History & Observations

Time (CST) Temp. Windchill Dew Point Humidity Pressure Visibility Wind Dir Wind Speed Gust Speed Precip Events Conditions
12:13 AM -5.8 °F - -9.4 °F 84% 30.31 in 10.0 mi Calm Calm - N/A   Clear
12:33 AM -5.8 °F - -11.2 °F 77% 30.31 in 10.0 mi Calm Calm - N/A   Clear
12:53 AM -5.8 °F - -11.2 °F 77% 30.31 in 10.0 mi Calm Calm - N/A   Clear
1:13 AM -7.6 °F - -11.2 °F 84% 30.32 in 10.0 mi Calm Calm - N/A   Clear
1:33 AM -7.6 °F - -11.2 °F 84% 30.32 in 10.0 mi Calm Calm - N/A   Clear
1:53 AM -7.6 °F - -11.2 °F 84% 30.32 in 10.0 mi Calm Calm - N/A   Mostly Cloudy
2:13 AM -7.6 °F - -13.0 °F 77% 30.33 in 10.0 mi Calm Calm - N/A   Overcast
2:33 AM -9.4 °F - -14.8 °F 77% 30.33 in 10.0 mi Calm Calm - N/A   Overcast
2:53 AM -9.4 °F - -14.8 °F 77% 30.35 in 10.0 mi Calm Calm - N/A   Overcast
3:13 AM -9.4 °F - -14.8 °F 77% 30.34 in 10.0 mi Calm Calm - N/A   Scattered Clouds
3:33 AM -9.4 °F - -14.8 °F 77% 30.35 in 10.0 mi Calm Calm - N/A   Clear
3:53 AM -9.4 °F - -14.8 °F 77% 30.34 in 10.0 mi Calm Calm - N/A   Clear
4:13 AM -11.2 °F - -16.6 °F 77% 30.33 in 10.0 mi Calm Calm - N/A   Clear
4:33 AM -11.2 °F - -16.6 °F 77% 30.33 in 10.0 mi Calm Calm - N/A   Clear
4:53 AM -11.2 °F - -16.6 °F 77% 30.33 in 10.0 mi Calm Calm - N/A   Clear
5:13 AM -13.0 °F - -18.4 °F 77% 30.33 in 10.0 mi Calm Calm - N/A   Clear
5:33 AM -11.2 °F - -18.4 °F 70% 30.32 in 10.0 mi Calm Calm - N/A Snow Light Snow
5:53 AM -13.0 °F - -18.4 °F 77% 30.33 in 10.0 mi Calm Calm - N/A   Clear
6:13 AM -14.8 °F - -20.2 °F 77% 30.34 in 10.0 mi Calm Calm - N/A   Clear
6:33 AM -14.8 °F - -20.2 °F 77% 30.34 in 10.0 mi Calm Calm - N/A   Clear
6:53 AM -14.8 °F - -20.2 °F 77% 30.34 in 10.0 mi Calm Calm - N/A   Clear
7:13 AM -13.0 °F - -18.4 °F 77% 30.34 in 10.0 mi Calm Calm - N/A   Clear
7:33 AM -11.2 °F - -16.6 °F 77% 30.34 in 10.0 mi Calm Calm - N/A   Clear
7:53 AM -9.4 °F - -14.8 °F 77% 30.34 in 10.0 mi Calm Calm - N/A   Clear
8:13 AM -0.4 °F - -5.8 °F 78% 30.34 in 10.0 mi Calm Calm - N/A Snow Light Snow
8:33 AM 1.4 °F - -2.2 °F 85% 30.34 in 10.0 mi Calm Calm - N/A   Clear
8:53 AM 3.2 °F - -0.4 °F 85% 30.34 in 10.0 mi Calm Calm - N/A   Clear
9:13 AM 8.6 °F - 6.8 °F 92% 30.34 in 10.0 mi Calm Calm - N/A   Clear
9:33 AM 14.0 °F - 10.4 °F 86% 30.34 in 10.0 mi Calm Calm - N/A   Clear
9:53 AM 17.6 °F - 12.2 °F 79% 30.34 in 10.0 mi Calm Calm - N/A   Clear
10:13 AM 21.2 °F 9.5 °F 12.2 °F 68% 30.34 in 10.0 mi ESE 11.5 mph - N/A   Clear
10:33 AM 23.0 °F 13.1 °F 12.2 °F 63% 30.34 in 10.0 mi ESE 9.2 mph - N/A   Clear
10:53 AM 24.8 °F 15.3 °F 12.2 °F 59% 30.34 in 10.0 mi ESE 9.2 mph - N/A   Clear
11:13 AM 26.6 °F 18.2 °F 12.2 °F 55% 30.34 in 10.0 mi SSE 8.1 mph - N/A   Clear
11:33 AM 26.6 °F 18.2 °F 14.0 °F 59% 30.33 in 10.0 mi SE 8.1 mph - N/A   Clear
11:53 AM 26.6 °F 19.1 °F 14.0 °F 59% 30.33 in 10.0 mi SSE 6.9 mph - N/A   Clear
12:13 PM 26.6 °F 19.1 °F 14.0 °F 59% 30.32 in 10.0 mi SSE 6.9 mph - N/A   Clear
12:33 PM 28.4 °F 21.2 °F 14.0 °F 55% 30.31 in 10.0 mi South 6.9 mph - N/A   Clear
12:53 PM 28.4 °F 21.2 °F 15.8 °F 59% 30.31 in 10.0 mi South 6.9 mph - N/A   Clear
1:13 PM 30.2 °F 24.3 °F 14.0 °F 51% 30.30 in 10.0 mi SSE 5.8 mph - N/A   Clear
1:33 PM 30.2 °F 24.3 °F 15.8 °F 55% 30.29 in 10.0 mi SE 5.8 mph - N/A   Clear
1:53 PM 30.2 °F 22.6 °F 15.8 °F 55% 30.28 in 10.0 mi SE 8.1 mph - N/A   Clear
2:13 PM 30.2 °F 23.4 °F 15.8 °F 55% 30.28 in 10.0 mi SE 6.9 mph - N/A   Clear
2:33 PM 32.0 °F 26.4 °F 15.8 °F 51% 30.27 in 10.0 mi SE 5.8 mph - N/A   Clear
2:53 PM 30.2 °F 23.4 °F 15.8 °F 55% 30.27 in 10.0 mi SE 6.9 mph - N/A   Clear
3:13 PM 32.0 °F 26.4 °F 15.8 °F 51% 30.27 in 10.0 mi ESE 5.8 mph - N/A   Clear
3:33 PM 32.0 °F 27.5 °F 15.8 °F 51% 30.27 in 10.0 mi SE 4.6 mph - N/A   Clear
3:53 PM 32.0 °F 25.6 °F 14.0 °F 48% 30.26 in 10.0 mi SSE 6.9 mph - N/A   Clear
4:13 PM 32.0 °F 24.8 °F 14.0 °F 48% 30.26 in 10.0 mi SSE 8.1 mph - N/A   Clear
4:33 PM 30.2 °F 22.6 °F 14.0 °F 51% 30.25 in 10.0 mi SSE 8.1 mph - N/A   Scattered Clouds
4:53 PM 30.2 °F 24.3 °F 14.0 °F 51% 30.26 in 10.0 mi SSE 5.8 mph - N/A   Clear
5:13 PM 30.2 °F 23.4 °F 15.8 °F 55% 30.25 in 10.0 mi SE 6.9 mph - N/A   Scattered Clouds
5:33 PM 30.2 °F 23.4 °F 15.8 °F 55% 30.25 in 10.0 mi SE 6.9 mph - N/A   Scattered Clouds
5:53 PM 30.2 °F 23.4 °F 15.8 °F 55% 30.24 in 10.0 mi ESE 6.9 mph - N/A   Scattered Clouds
7:33 PM 26.6 °F 21.2 °F 15.8 °F 64% 30.25 in 10.0 mi SE 4.6 mph - N/A   Clear
7:53 PM 26.6 °F 19.1 °F 15.8 °F 64% 30.24 in 10.0 mi SE 6.9 mph - N/A   Clear
8:13 PM 26.6 °F 19.1 °F 15.8 °F 64% 30.24 in 10.0 mi SE 6.9 mph - N/A   Scattered Clouds
8:33 PM 26.6 °F 18.2 °F 15.8 °F 64% 30.23 in 10.0 mi SE 8.1 mph - N/A   Scattered Clouds
8:53 PM 26.6 °F 19.1 °F 15.8 °F 64% 30.23 in 10.0 mi SE 6.9 mph - N/A   Clear
9:13 PM 26.6 °F 19.1 °F 15.8 °F 64% 30.23 in 10.0 mi SE 6.9 mph - N/A   Clear
9:33 PM 26.6 °F 19.1 °F 15.8 °F 64% 30.24 in 10.0 mi SSE 6.9 mph - N/A   Clear
9:53 PM 24.8 °F 17.9 °F 15.8 °F 69% 30.24 in 10.0 mi SSE 5.8 mph - N/A   Clear
10:13 PM 24.8 °F 17.9 °F 15.8 °F 69% 30.24 in 10.0 mi SSE 5.8 mph - N/A   Clear
10:33 PM 24.8 °F 16.9 °F 15.8 °F 69% 30.25 in 10.0 mi SSE 6.9 mph - N/A   Clear
10:53 PM 24.8 °F 16.9 °F 15.8 °F 69% 30.25 in 10.0 mi SSE 6.9 mph - N/A   Clear
11:13 PM 23.0 °F 14.7 °F 15.8 °F 74% 30.25 in 10.0 mi SSE 6.9 mph - N/A   Clear
11:33 PM 23.0 °F 17.0 °F 15.8 °F 74% 30.25 in 10.0 mi SSE 4.6 mph - N/A   Clear
11:53 PM 23.0 °F 15.8 °F 15.8 °F 74% 30.26 in 10.0 mi SSE 5.8 mph - N/A   Clear